Powrót do katalogu

STARLINK-38237

AktywnyŁącznośćSSO
NORAD 100373·PAYLOAD·🇺🇸 United States

Wystrzelony Aug 19, 2026 z Vandenberg Space Force Base

Loading…

Następne Przeloty (najbliższe 24 godziny)

TLE

ŚwieżeSource: Space-Track

Epoka: Sep 14, 2026, 13:54 UTC

1 A0373U 26190C   26257.57937220  .00090783  00000-0  60246-3 0  9996
2 A0373  97.2838 111.6445 0001360  82.7588 277.3832 15.75213297  5449

Śledź STARLINK-38237 w czasie rzeczywistym z AllMySat

Download on the App Store